This is the latest recevied weather packets stored in our database for station/object K6CED. If no packets are shown the sender has not sent any weather packets the latest 10 day(s).
| Time | Temp. | Humidity | Pressure | Rain* | Wind** | Luminosity | Snow |
|---|---|---|---|---|---|---|---|
| 1777491407 | 24.44° C | 34% | 1017.3 hPa | 0 mm | - | 906 W/m² | - |
| 1777491104 | 23.89° C | 34% | 1017.1 hPa | 0 mm | - | 907 W/m² | - |
| 1777490799 | 24.44° C | 32% | 1017.3 hPa | 0 mm | - | 907 W/m² | - |
| 1777490496 | 23.89° C | 32% | 1017.3 hPa | 0 mm | - | 908 W/m² | - |
| 1777490192 | 23.33° C | 28% | 1017.3 hPa | 0 mm | - | 908 W/m² | - |
| 1777489889 | 23.33° C | 27% | 1017.4 hPa | 0 mm | - | 910 W/m² | - |
| 1777489587 | 23.33° C | 27% | 1017.6 hPa | 0 mm | - | 907 W/m² | - |
| 1777489283 | 23.33° C | 28% | 1017.6 hPa | 0 mm | - | 904 W/m² | - |
| 1777488981 | 23.33° C | 26% | 1017.8 hPa | 0 mm | - | 904 W/m² | - |
| 1777488678 | 22.22° C | 28% | 1017.9 hPa | 0 mm | - | 902 W/m² | - |
| 1777488375 | 22.78° C | 31% | 1018 hPa | 0 mm | - | 897 W/m² | - |
| 1777488074 | 22.78° C | 34% | 1018.1 hPa | 0 mm | - | 884 W/m² | - |
| 1777487771 | 22.22° C | 36% | 1018.2 hPa | 0 mm | - | 885 W/m² | - |
| 1777487469 | 21.11° C | 37% | 1018.3 hPa | 0 mm | - | 876 W/m² | - |
| 1777487166 | 22.22° C | 36% | 1018.3 hPa | 0 mm | - | 870 W/m² | - |
| 1777486861 | 21.67° C | 37% | 1018.4 hPa | 10.67 mm | - | 866 W/m² | - |
| 1777486559 | 21.11° C | 37% | 1018.3 hPa | 10.67 mm | - | 859 W/m² | - |
| 1777486256 | 20.56° C | 39% | 1018.4 hPa | 0 mm | - | 853 W/m² | - |
| 1777485954 | 20.56° C | 41% | 1018.5 hPa | 0 mm | - | 845 W/m² | - |
| 1777485649 | 20° C | 42% | 1018.6 hPa | 0 mm | - | 836 W/m² | - |
| 1777485345 | 20.56° C | 41% | 1018.6 hPa | 0 mm | - | 829 W/m² | - |
| 1777485042 | 20.56° C | 43% | 1018.5 hPa | 0 mm | - | 819 W/m² | - |
| 1777484739 | 20.56° C | 44% | 1018.8 hPa | 0 mm | - | 809 W/m² | - |
| 1777484435 | 20.56° C | 44% | 1018.7 hPa | 0 mm | - | 797 W/m² | - |
| 1777484132 | 20.56° C | 46% | 1018.7 hPa | 0 mm | - | 790 W/m² | - |
* Rain latest hour (hover to see other rain measurements)
** Current wind speed in m/s (hover to see current wind gust speed)